Regional Weather Roundup
Issued by NWS Mt. Holly, NJ

Home | Current Version | Previous Version | Text Only | Print | Product List | Glossary On
Versions: 1 2 3 4 5 6 7 8 9 10 11 12 13 14 15 16 17 18 19 20 21 22 23 24 25 26 27 28 29 30 31 32 33 34 35 36 37 38 39 40 41 42 43 44 45 46 47 48 49 50
000
ASUS41 KPHI 111512
RWRPHI

REGIONAL WEATHER ROUNDUP
NATIONAL WEATHER SERVICE MOUNT HOLLY NJ
1000 AM EST THU FEB 11 2016

NOTE:  "FAIR" INDICATES FEW OR NO CLOUDS BELOW 12,000 FEET WITH NO
SIGNIFICANT WEATHER AND/OR OBSTRUCTIONS TO VISIBILITY.

 * = STATION DOES NOT REPORT PRECIPITATION (E.G. RAIN, SNOW, ETC.)
        OR FOG.

NJZ015>026-111600-
SOUTHERN NEW JERSEY

CITY           SKY/WX    TMP DP  RH WIND       PRES   REMARKS
POMONA         PTSUNNY   27   6  41 W16       30.00R WCI  15
WILDWOOD*      PTSUNNY   25   5  42 W20G25    30.05R WCI  11
MILLVILLE      PTSUNNY   25   6  44 NW22G30   30.03S WCI  10
WRIGHTSTOWN    FLURRIES  21  21 100 W13G22    29.96R WCI   9
MOUNT HOLLY    CLOUDY    23   9  55 NW13G26   30.00R WCI  11
TRENTON        MOSUNNY   23   8  52 W15G25    29.97R WCI  10

$$
NJZ001>014-111600-
NORTHERN NEW JERSEY

CITY           SKY/WX    TMP DP  RH WIND       PRES   REMARKS
SUSSEX         MOSUNNY   21   1  41 W13G23    29.88R WCI   9
ANDOVER*         N/A     21   0  39 NW12G18   29.89R WCI   9
MORRISTOWN     MOSUNNY   23   1  39 NW14G33   29.92R WCI  11
NEWARK         PTSUNNY   26  -1  31 W21G32    29.92S WCI  12
TETERBORO      MOSUNNY   25  -1  32 NW13G23   29.91R WCI  14
CALDWELL       MOSUNNY   24  -2  32 W16G26    29.92R WCI  11
SOMERVILLE     PTSUNNY   23   4  44 W13G25    29.93S WCI  11
ALLAIRE*       MOSUNNY   25   3  39 W17G25    29.94S WCI  11
TOMS RIVER*    CLOUDY    25   9  50 W25G35    29.98R WCI   9

$$
PAZ043-044-047-054-055-060>062-066>071-111600-
EASTERN PENNSYLVANIA

CITY           SKY/WX    TMP DP  RH WIND       PRES   REMARKS
PHILADELPHIA   PTSUNNY   25   5  42 W28       30.03R WCI   9
NORTH PHILA    PTSUNNY   23  11  60 W21G30    30.01S WCI   8
BLUE BELL*       N/A     21   9  58 W12G25    29.98R WCI   9
DOYLESTOWN     LGT SNOW  18  11  74 W15G29    29.96R WCI   4
QUAKERTOWN*    PTSUNNY   19  10  68 W12G18    29.97R WCI   7
PERKASIE*      SNOW      18  14  86 W10       29.96R VSB 1/2 WCI   6
POTTSTOWN      MIX PCPN  19   2  47 W16G24    30.00R WCI   4
LANCASTER      MOSUNNY   19   5  54 W22G29    30.02R WCI   2
COATESVILLE    LGT SNOW  18  10  73 W16G24    30.00R WCI   3
READING        MOSUNNY   20   1  43 W20G28    29.99R WCI   4
ALLENTOWN      MOSUNNY   21   6  52 W16G24    29.95S WCI   7
MOUNT POCONO   MOSUNNY   13  -2  51 W18G33    29.77R WCI  -4
HAZLETON       PTSUNNY   18   3  53 W12G18    29.88R WCI   5
LEHIGHTON      PTSUNNY   21   5  49 W14G22    29.95S WCI   8
WILKES BARRE   PTSUNNY   17   0  47 W14G25    29.88R WCI   3

$$
DEZALL-MDZ008-012-015-019-020-111600-
DELAWARE AND EASTERN MARYLAND

CITY           SKY/WX    TMP DP  RH WIND       PRES   REMARKS
WILMINGTON     MOSUNNY   21   7  54 W21G31    30.06R WCI   5
DOVER          SUNNY     25   7  46 W21G28    30.05R WCI  11
GEORGETOWN     FLURRIES  25   4  40 W17G26    30.08R WCI  12
EASTON         MOSUNNY   27   5  39 NW18G28   30.13R WCI  13
ABERDEEN       PTSUNNY   25   7  46 W17G29    30.09R WCI  11
PATUXENT       PTSUNNY   25   1  35 NW18      30.14R WCI  11
OCEAN CITY     MOSUNNY   27   4  37 NW16G32   30.09R WCI  15
WALLOPS ISLAND PTSUNNY   26   6  42 W24G33    30.11R WCI  11
CAMBRIDGE      SUNNY     25   3  39 W15G29    30.11S WCI  12
SALISBURY      PTSUNNY   27   3  35 W13G32    30.10R WCI  16

$$
PAZ001-021-NYZ056-072-MDZ011-DCZ001-111600-
OTHER NEARBY LOCATIONS

CITY           SKY/WX    TMP DP  RH WIND       PRES   REMARKS
HARRISBURG     MOSUNNY   20   4  50 NW18      30.04R WCI   5
STATE COLLEGE  MOSUNNY   16   0  48 NW21      29.98R WCI  -2
WILLIAMSPORT   PTSUNNY   20   2  45 W18G24    29.96R WCI   5
BINGHAMTON     MOSUNNY   11  -3  53 W17G30    29.79R WCI  -6
NEW YORK CITY  MOSUNNY   24  -2  32 W15G26    29.91S WCI  11
BALTIMORE      MOSUNNY   24   3  40 W18G32    30.10R WCI  10
WASHINGTON DC  FAIR      24   1  36 NW18G25   30.14S WCI  10

$$



USA.gov is the U.S. government's official web portal to all federal, state and local government web resources and services.